Change the Weather History Date:

Sunday, January 12, 2014

  Actual Average Record
Temperature  
Mean Temperature 72 °F -  
Max Temperature 77 °F 74 °F 86 °F (1938)
Min Temperature 65 °F 53 °F 33 °F (1956)
Cooling Degree Days 7    
Growing Degree Days 22 (Base 50)    
Moisture  
Dew Point 68 °F    
Average Humidity 94    
Maximum Humidity 100    
Minimum Humidity 68    
Precipitation  
Precipitation 0.01 in - - ()
Sea Level Pressure  
Sea Level Pressure 30.10 in    
Wind  
Wind Speed 5 mph (WSW)    
Max Wind Speed 12 mph    
Max Gust Speed -    
Visibility 6 miles    
Events      
Averages and records for this station are not official NWS values.
T = Trace of Precipitation, MM = Missing Value Source: NWS Daily Summary

Daily Weather History Graph

Daily Weather History Graph

Search for Another Location

Airport or City:

Trip Planner

Search our weather history database for the weather conditions in past years. The results will help you decide how hot, cold, wet, or windy it might be!

Date:

Astronomy

Jan. 12, 2014 Rise Set
Actual Time 7:09 AM EST 5:50 PM EST
Civil Twilight 6:44 AM EST 6:15 PM EST
Nautical Twilight 6:16 AM EST 6:43 PM EST
Astronomical Twilight 5:48 AM EST 7:11 PM EST
Moon 3:15 PM EST (1/12) 4:09 AM EST (1/12)
Length of Visible Light 11h 30m
Length of Day
10h 41m
Waxing Gibbous, 89% of the Moon is Illuminated
Jan 12
Waxing Gibbous
Jan 15
Full
Jan 24
Last Quarter
Jan 30
New
Feb 6
First Quarter

Hourly Weather History & Observations

Time (EST) Temp. Dew Point Humidity Pressure Visibility Wind Dir Wind Speed Gust Speed Precip Events Conditions
12:03 AM 69.8 °F 69.8 °F 100% 30.07 in 6.0 mi WSW 3.5 mph - N/A   Clear
12:13 AM 68.0 °F 68.0 °F 100% 30.07 in 3.0 mi SW 2.3 mph - N/A   Clear
12:18 AM 68.0 °F 68.0 °F 100% 30.08 in 1.8 mi WSW 4.6 mph - N/A   Clear
12:20 AM 68.0 °F 68.0 °F 100% 30.08 in 3.0 mi WSW 4.6 mph - N/A   Clear
12:38 AM 68.0 °F 68.0 °F 100% 30.08 in 1.0 mi SW 3.5 mph - N/A   Clear
12:58 AM 68.0 °F 68.0 °F 100% 30.08 in 1.0 mi SW 3.5 mph - N/A   Clear
1:58 AM 68.0 °F 68.0 °F 100% 30.08 in 0.8 mi SSW 4.6 mph - N/A   Clear
2:08 AM 68.0 °F 68.0 °F 100% 30.07 in 1.0 mi SSW 4.6 mph - N/A   Clear
2:17 AM 69.8 °F 69.8 °F 100% 30.07 in 1.8 mi SSW 4.6 mph - N/A   Clear
2:23 AM 69.8 °F 69.8 °F 100% 30.07 in 3.0 mi South 4.6 mph - N/A   Clear
2:33 AM 68.0 °F 68.0 °F 100% 30.06 in 5.0 mi SSW 4.6 mph - N/A   Clear
2:43 AM 68.0 °F 68.0 °F 100% 30.06 in 4.0 mi SSW 4.6 mph - N/A   Partly Cloudy
2:52 AM 68.0 °F 68.0 °F 100% 30.06 in 1.5 mi SSW 4.6 mph - N/A   Mostly Cloudy
2:58 AM 68.0 °F 68.0 °F 100% 30.07 in 1.8 mi South 4.6 mph - N/A   Mist
3:58 AM 69.8 °F 69.8 °F 100% 30.06 in 0.8 mi SW 4.6 mph - N/A   Mist
4:45 AM 69.8 °F 69.8 °F 100% 30.05 in 1.0 mi SW 6.9 mph - N/A   Mist
4:50 AM 69.8 °F 69.8 °F 100% 30.05 in 1.5 mi SW 6.9 mph - N/A   Overcast
4:55 AM 69.8 °F 69.8 °F 100% 30.05 in 2.0 mi SW 5.8 mph - N/A   Overcast
4:58 AM 69.8 °F 69.8 °F 100% 30.06 in 2.0 mi SW 5.8 mph - 0.01 in   Overcast
5:03 AM 69.8 °F 69.8 °F 100% 30.05 in 3.0 mi SSW 4.6 mph - N/A   Overcast
5:18 AM 69.8 °F 69.8 °F 100% 30.06 in 5.0 mi SW 3.5 mph - N/A   Scattered Clouds
5:33 AM 69.8 °F 69.8 °F 100% 30.06 in 10.0 mi WSW 6.9 mph - N/A   Partly Cloudy
5:58 AM 70.0 °F 70.0 °F 100% 30.08 in 10.0 mi WSW 5.8 mph - N/A   Clear
6:58 AM 70.5 °F 70.5 °F 100% 30.09 in 10.0 mi West 6.9 mph - N/A   Scattered Clouds
7:08 AM 69.8 °F 69.8 °F 100% 30.09 in 10.0 mi West 4.6 mph - N/A   Mostly Cloudy
7:58 AM 70.7 °F 70.7 °F 100% 30.12 in 10.0 mi WNW 4.6 mph - N/A   Mostly Cloudy
8:08 AM 69.8 °F 69.8 °F 100% 30.11 in 10.0 mi NW 4.6 mph - N/A   Mostly Cloudy
8:28 AM 69.8 °F 69.8 °F 100% 30.13 in 10.0 mi WNW 4.6 mph - N/A   Scattered Clouds
8:58 AM 70.5 °F 70.5 °F 100% 30.15 in 10.0 mi NNW 10.4 mph - N/A   Partly Cloudy
9:58 AM 71.4 °F 71.4 °F 100% 30.17 in 10.0 mi North 11.5 mph - N/A   Partly Cloudy
10:58 AM 74.7 °F 67.6 °F 79% 30.16 in 10.0 mi North 9.2 mph - N/A   Clear
11:58 AM 76.3 °F 65.7 °F 70% 30.14 in 10.0 mi North 6.9 mph - N/A   Clear
12:58 PM 77.0 °F 66.7 °F 70% 30.11 in 10.0 mi NNW 5.8 mph - N/A   Clear
1:58 PM 77.4 °F 66.2 °F 68% 30.10 in 10.0 mi North 8.1 mph - N/A   Clear
2:58 PM 77.2 °F 66.6 °F 70% 30.10 in 10.0 mi East 6.9 mph - N/A   Clear
3:58 PM 75.7 °F 66.6 °F 73% 30.11 in 10.0 mi ENE 8.1 mph - N/A   Clear
4:58 PM 74.7 °F 65.1 °F 72% 30.13 in 10.0 mi ENE 8.1 mph - N/A   Clear
5:58 PM 72.1 °F 64.4 °F 77% 30.14 in 10.0 mi NE 8.1 mph - N/A   Clear
6:58 PM 68.7 °F 64.0 °F 85% 30.15 in 10.0 mi NE 6.9 mph - N/A   Clear
7:58 PM 69.3 °F 64.2 °F 84% 30.17 in 10.0 mi NE 4.6 mph - N/A   Clear
8:58 PM 68.2 °F 64.9 °F 89% 30.17 in 10.0 mi NE 2.3 mph - N/A   Clear
9:58 PM 67.5 °F 64.6 °F 90% 30.18 in 10.0 mi Calm Calm - N/A   Clear
10:58 PM 67.1 °F 65.1 °F 93% 30.17 in 10.0 mi North 3.5 mph - N/A   Clear
11:58 PM 65.8 °F 65.8 °F 100% 30.15 in 10.0 mi ENE 2.3 mph - N/A   Clear